Home > Weather > Charlotte Amalie > Past weeks

Flag for US Virgin Islands Weather for the Past 2 Weeks in Charlotte Amalie, US Virgin Islands

Now
77 °F

Clear.


Feels Like: 79 °F
Forecast: 72 / 83 °F
Wind: 9 mph from South

Location: Cyril E. King International Airport

Current Time: Feb 6, 2016 at 6:00:42 AM

Latest Report: Feb 6, 2016 at 4:53 AM


Visibility: 10 mi

Pressure: 30.00 "Hg

Humidity: 74%

Dew point: 68 °F

Location of Charlotte AmalieLocation

Historic Weather in Charlotte Amalie — Graph

°F

Charlotte Amalie Temperature Yesterday

Maximum temperature yesterday: 80 °F (at 12:53 PM)
Minimum temperature yesterday: 71 °F (at 6:53 AM)
Average temperature yesterday: 77 °F

High & Low Weather Summary for the Past Weeks

 TemperatureHumidityPressure
High86 °F (Jan 26, 12:53 PM)97% (Jan 30, 7:53 AM)30.18 "Hg (Jan 30, 7:53 AM)
Low71 °F (Feb 5, 6:53 AM)51% (Jan 26, 11:53 AM)29.89 "Hg (Feb 4, 3:53 PM)
Average78 °F74%30.03 "Hg
* Reported Jan 22 4:53 AM — Feb 6 4:53 AM, Charlotte Amalie, Weather by CustomWeather, © 2016

Note: Actual official high and low records may vary slightly from our data, if they occured in-between our weather recording intervals... More about our weather records

Advertising

Charlotte Amalie Weather History for the Previous 24 Hours

 ConditionsComfort  
Time TempWeatherWind HumidityBarometerVisibility
4:53 AM
Sat, Feb 6
77 °FClear.9 mph74%30.00 "Hg10 mi
3:53 AM77 °FPassing clouds.9 mph77%30.01 "Hg10 mi
2:53 AM77 °FClear.12 mph74%30.01 "Hg10 mi
1:53 AM77 °FPassing clouds.10 mph77%30.02 "Hg10 mi
12:53 AM78 °FPartly cloudy.10 mph76%30.03 "Hg10 mi
11:53 PM
Fri, Feb 5
78 °FPartly cloudy.9 mph76%30.03 "Hg10 mi
10:53 PM78 °FPassing clouds.7 mph71%30.04 "Hg10 mi
9:53 PM78 °FClear.6 mph71%30.03 "Hg10 mi
8:53 PM78 °FClear.7 mph71%30.03 "Hg10 mi
7:53 PM78 °FPassing clouds.8 mph71%30.01 "Hg10 mi
6:53 PM78 °FPassing clouds.6 mph74%29.99 "Hg10 mi
5:53 PM79 °FScattered clouds.6 mph72%29.98 "Hg10 mi
4:53 PM79 °FSunny.6 mph72%29.96 "Hg10 mi
3:53 PM79 °FSunny.5 mph72%29.94 "Hg10 mi
2:53 PM80 °FSunny.5 mph67%29.94 "Hg10 mi
1:53 PM79 °FSunny.7 mph72%29.96 "Hg10 mi
12:53 PM80 °FSunny.9 mph71%29.98 "Hg10 mi
11:53 AM79 °FPassing clouds.6 mph74%30.00 "Hg10 mi
10:53 AM79 °FSunny.6 mph69%30.01 "Hg10 mi
9:53 AM78 °FScattered clouds.5 mph74%30.01 "Hg10 mi
8:53 AM77 °FScattered clouds.5 mph77%29.99 "Hg10 mi
7:53 AM74 °FSunny.No wind85%29.97 "Hg10 mi
6:53 AM71 °FSunny.No wind90%29.94 "Hg10 mi
Weather by CustomWeather, © 2016

See weather overviewHow to use our weather pages